www.pogodaiklimat.ru

Погода и климат >> Архив погоды >> Кот-д'Ивуар >> Адиаке


ПОГОДА в Адиаке

  • Прогноз погоды в Адиаке
  • Монитор погоды в Адиаке

АРХИВ ПОГОДЫ в Адиаке

Время (UTC), дата Ветер
(напр.,м/с)
 
Видим.   Явления Облачность Т
(С)
Тd
(С)
f
(%)
Тe
(С)
Тes
(С)
Комфортность P
(гПа)
Po
(гПа)
Тmin
(С)
Tmax
(С)
R
(мм)
R24
(мм)
S
(см)
06 12.06 штиль 0 8000 м 6/1 400 м
[Sc Ac trans]
+23.8 +23.5 98 +32 +32 очень
душно
1013.2 1009.4 +23.7
12 12.06 Ю 2 10 км 9/5 400 м
[Cu med, cong Ac trans]
+29.0 +23.0 70 +39 +44 очень
душно
1014.8 1011.0
18 12.06 Ю 3 10 км 4/4 400 м
[Cu med, cong]
+27.5 +22.4 74 +36 +36 очень
душно
1012.5 1008.7 +30.5
00 13.06 ЮЗ 1 10 км 5/5 400 м
[Cu med, cong]
+24.8 +23.6 93 +34 +34 очень
душно
1013.8 1010.0
06 13.06 З 1 8000 м 3/0
[Ci sp]
+23.0 +22.3 96 +31 +31 очень
душно
1014.6 1010.7 +23.0
12 13.06 З 3 10 км 8/8 400 м
[Cu med, cong]
+29.6 +22.6 66 +39 +42 очень
душно
1015.1 1011.3
18 13.06 ЮЗ 1 10 км 1/1 400 м
[Cu med, cong]
+27.4 +22.6 75 +36 +36 очень
душно
1012.0 1008.2 +33.0
21 13.06 ЮЗ 1 8000 м 10/0
[Ci sp]
+25.8 +23.8 89 +35 +35 очень
душно
1014.1 1010.3
00 14.06 СЗ 1 8000 м 4/0
[Ci sp]
+25.0 +23.8 93 +34 +34 очень
душно
1013.9 1010.1
03 14.06 штиль 0 8000 м 4/4 400 м
[Sc]
+25.0 +24.0 94 +34 +34 очень
душно
1012.6 1008.8
06 14.06 СЗ 1 8000 м 8/3 400 м
[Sc Ac As]
+24.2 +23.5 96 +33 +33 очень
душно
1013.5 1009.7 +24.2
09 14.06 З 1 10 км 6/6 400 м
[Cu med, cong]
+28.4 +24.2 78 +40 +44 очень
душно
1014.5 1010.7
12 14.06 З 1 10 км 9/5 400 м
[Cu med, cong Ac trans]
+28.7 +24.0 76 +40 +46 очень
душно
1013.9 1010.1
15 14.06 ЮЗ 6 10 км гроза без осадков 10/6 400 м
[Cb cap Ac As]
+26.4 +24.8 91 +38 +38 очень
душно
1011.9 1008.1
18 14.06 ЮЗ 1 6000 м гроза, ливневой дождь 10/4 400 м
[Cb cap Ac As]
+25.0 +24.5 97 +35 +35 очень
душно
1012.1 1008.3 +30.1 68
21 14.06 З 1 8000 м 9/0
[Ac As]
+24.7 +24.4 98 +34 +34 очень
душно
1014.2 1010.4
00 15.06 З 1 8000 м {гроза, дождь} 9/4 400 м
[Sc Ac As]
+24.6 +24.3 98 +34 +34 очень
душно
1013.7 1009.9 0.2
03 15.06 З 1 8000 м 9/5 400 м
[Sc Ac As]
+24.4 +24.2 99 +34 +34 очень
душно
1011.7 1007.9
06 15.06 З 1 8000 м 8/4 400 м
[Cu med, cong Ac As]
+24.5 +24.2 98 +34 +34 очень
душно
1012.6 1008.8 +24.1 28
09 15.06 ЮЗ 1 8000 м в посл. час дождь 9/4 400 м
[Cu med, cong Ac As]
+26.0 +25.1 95 +37 +40 очень
душно
1014.8 1011.0
12 15.06 ЮЗ 3 10 км {дождь} 9/9 400 м
[Cu med, cong]
+29.5 +25.1 77 +43 +44 опасность
перегрева
1013.8 1010.0 2
15 15.06 ЮЗ 3 10 км 9/5 400 м
[Cu med, cong Ac As]
+27.8 +24.2 81 +39 +41 очень
душно
1012.2 1008.4
18 15.06 ЮЗ 1 10 км 9/1 400 м
[Cu med, cong Ac trans]
+27.1 +24.4 85 +38 +38 очень
душно
1012.9 1009.1 +29.8
21 15.06 З 2 10 км 9/0
[Ac trans]
+25.6 +24.7 95 +36 +36 очень
душно
1015.0 1011.2
00 16.06 СЗ 1 8000 м 10/0
[Ac trans]
+25.2 +24.7 97 +35 +35 очень
душно
1014.8 1011.0
03 16.06 З 1 8000 м зарница 9/3 400 м
[Cb cap Ac trans]
+24.8 +24.3 97 +34 +34 очень
душно
1012.7 1008.9
06 16.06 СЗ 2 6000 м зарница 10/4 400 м
[Cb cap Ac trans]
+24.9 +24.4 97 +35 +35 очень
душно
1013.4 1009.6 +24.7
09 16.06 З 3 6000 м гроза, ливневой дождь 10/5 400 м
[Cb cap As op]
+23.9 +23.4 97 +32 +33 очень
душно
1015.7 1011.9
12 16.06 ЮЗ 2 10 км в посл. час дождь {гроза} 10/3 400 м
[Cu med, cong Ac As]
+25.4 +24.4 94 +35 +40 очень
душно
1015.6 1011.8 27
15 16.06 З 2 10 км 10/5 400 м
[Cu med, cong Ac As]
+26.9 +24.7 88 +38 +40 очень
душно
1013.2 1009.4
18 16.06 ЮЗ 1 10 км 9/3 400 м
[Cu med, cong Ac trans]
+25.6 +24.0 91 +35 +35 очень
душно
1013.3 1009.5 +27.3 27
21 16.06 З 1 10 км 8/0
[Ac trans]
+24.3 +23.8 97 +33 +33 очень
душно
1014.6 1010.8
00 17.06 Ю 1 10 км 8/0
[Ac trans]
+23.8 +23.3 97 +32 +32 очень
душно
1013.9 1010.1
03 17.06 штиль 0 8000 м 10/10 400 м
[Sc]
+23.8 +23.5 98 +32 +32 очень
душно
1012.7 1008.9
06 17.06 СЗ 1 8000 м в посл. час дождь 10/10 400 м
[Sc]
+24.0 +23.8 99 +33 +33 очень
душно
1013.7 1009.9 +23.6 28
09 17.06 С 3 8000 м 8/8 400 м
[Cu med, cong]
+25.7 +24.3 92 +36 +37 очень
душно
1015.8 1012.0
15 17.06 Ю 4 10 км {дождь} 6/6 400 м
[Cu med, cong]
+29.0 +26.8 88 +45 +48 опасность
перегрева
1012.5 1008.7
18 17.06 Ю 2 10 км {дождь} 5/5 400 м
[Cu med, cong]
+27.1 +24.4 85 +38 +38 очень
душно
1012.4 1008.6 +29.3 1
09 18.06 З 2 6000 м в посл. час дождь 8/8 400 м
[Cb cap]
+25.4 +25.1 98 +36 +38 очень
душно
1015.5 1011.7
12 18.06 Ю 3 10 км {дождь} 6/6 400 м
[Cu med, cong]
+29.3 +24.8 77 +42 +49 опасность
перегрева
1014.8 1011.0 3
15 18.06 Ю 4 10 км 4/4 400 м
[Cu med, cong]
+30.0 +23.9 70 +41 +46 опасность
перегрева
1012.3 1008.5
18 18.06 Ю 2 10 км 4/1 400 м
[Cu med, cong Ci sp]
+27.5 +24.6 84 +39 +39 очень
душно
1012.7 1008.9 +31.0 3
21 18.06 З 1 10 км ясно +25.5 +24.6 95 +36 +36 очень
душно
1014.0 1010.2
00 19.06 ЮЗ 1 8000 м ясно +24.9 +24.6 98 +35 +35 очень
душно
1013.7 1009.9
03 19.06 З 2 8000 м 9/4 400 м
[Cb cap Ac As]
+24.9 +24.6 98 +35 +35 очень
душно
1013.3 1009.5

 

Местоположение метеостанции Адиаке (Кот-д'Ивуар): широта 5.30 долгота -3.30 высота над уровнем моря 39 м.

В архиве по умолчанию представлена погода в Адиаке за последнюю неделю. Архивные данные за месяц целиком и за предыдущие месяцы, начиная с января 2011 года, Вы можете получить, выбрав интересующий диапазон дат из раскрывающегося списка и нажав кнопку "Ввод!".


*Определитесь, кто Вы:
робот инопланетянин человек

Внимание! Время в таблицах - всемирное. Для получения местного времени необходимо прибавить поправку, которая равна 0 ч.

Смотрите также архив погоды в соседних городах и на ближайших метеорологических станциях:

Погода в Абиджане (Кот-д'Ивуар) (70 км)
Погода в Аксиме (Гана) (128 км)
Погода в Сефви Беквай (Гана) (147 км)
Погода Такоради (Гана) (176 км)
Погода в Димбокро (Кот-д'Ивуар) (216 км)
Погода в Кумаси (Гана) (246 км)
Погода в Солтпонде (Гана) (247 км)
Погода в Суняни (Гана) (250 км)
Погода в Аким Ода (Гана) (266 км)
Погода в Ямусукро (Кот-д'Ивуар) (288 км)

Пояснения к столбцам:

Ветер - указаны скорость ветра в м/с - средняя за 10 мин, порывы в срок и между сроками (в фигурных скобках) и направление, откуда дует ветер: С - северный, СВ - северо-восточный, В - восточный, ЮВ - юго-восточный, Ю - южный, ЮЗ - юго-западный, З - западный, СЗ - северо-западный.
Видимость - горизонтальная дальность видимости в метрах или километрах. При видимости от 1 до 10 км при отсутствии осадков обычно наблюдается дымка, при ухудшении видимости до 1 км и менее - туман. В сухую погоду видимость может ухудшаться дымом, пылью или мглою.
Явления - указаны атмосферные явления, наблюдавшиеся в срок или в последний час перед сроком; фигурными скобками обозначены явления, наблюдавшиеся между сроками (за 1-3 часа до срока); квадратными скобками обозначены град или гололедные отложения с указанием их диаметра в мм.
Облачность - указаны через наклонную черту общая и нижняя облачность в баллах и высота нижней границы облаков в метрах; квадратными скобками обозначены формы облаков: Ci - перистые, Cs - перисто-слоистые, Cc - перисто-кучевые, Ac - высококучевые, As - высокослоистые, Sc - слоисто-кучевые, Ns - слоисто-дождевые, Cu - кучевые, Cb - кучево-дождевые. Подробнее классификацию облаков см. в Атласе облаков (PDF).
T - Температура воздуха - температура, измеренная на высоте 2 м над землей.
Td - Температура точки росы - температура, при понижении до которой содержащийся в воздухе водяной пар достигнет насыщения.
f - Относительная влажность воздуха - влажноcть воздуха, измеренная на высоте 2 м над землей.
Te - Эффективная температура - температура, которую ощущает одетый по сезону человек в тени. Характеристика душности погоды. При расчете учитывается влияние влажности воздуха и скорости ветра на теплоощущения человека.
Tes - Эффективная температура на солнце - температура, которую ощущает человек, с поправкой на солнечный нагрев. Характеристика знойности погоды. Зависит от высоты солнца над горизонтом, облачности и скорости ветра. Ночью, в пасмурную погоду, а также при ветре 12 м/с и более поправка равна нулю.
P - Атмосферное давление - приведенное к уровню моря атмосферное давление.
Po - Атмосферное давление - измеренное на уровне метеостанции атмосферное давление.
Tmin - Минимальная температура - минимум температуры воздуха на высоте 2 м над землей.
Tmax - Максимальная температура - максимум температуры воздуха на высоте 2 м над землей.
R - Количество осадков - Количество выпавших осадков за период времени, мм. При наведении курсора мыши на число - период времени, за который выпало указанное количество осадков.
R24 - Количество осадков - Количество выпавших осадков за 24 часа, мм.
S - Снежный покров - Высота снежного покрова, см. При наведении курсора мыши на число - состояние снежного покрова и степень покрытия местности в баллах.